Location: Arena
(42.5007°N, 9.4650°E)
Time: 10:53:08
(UTC+00:00)

USA 234 - Pass Details

Date: 09 April 2020
Orbit: 1102 x 1106 km, 123.0° (Epoch: 14 May)

Event Time Altitude Azimuth Distance (km) Brightness Sun altitude
Rises 21:34:58 0° 47° (NE) 3,925 6.3 -33.8°
Reaches altitude 10° 21:37:30 10° 43° (NE) 2,965 5.6 -34.0°
Maximum altitude 21:43:49 54° 329° (NNW) 1,321 3.8 -34.6°
Drops below altitude 10° 21:50:08 10° 254° (WSW) 2,958 5.6 -35.2°
Sets 21:52:40 0° 250° (WSW) 3,915 6.2 -35.4°
